ITY255 EHAM-EDDM

Flight info

Callsign ITY255
Flight time 1h 18m
Altitude 35000
Route EDUPO Z739 MISGO DCT DOJOH DCT DODEN DCT TABUM DCT BOMBI T104 ROKIL ROKIL1A
Aircraft A320/M-SDE3FGHIRWY/LB1

Departure

Time 2026-05-06 12:33
Airport Amsterdam Airport Schiphol (EHAM)

Arrival

Time 2026-05-06 13:51
Airport Munich Airport (EDDM)
Time Latitude Longitude Altitude Speed Heading
2026-05-06 12:04 52.30476 4.76290 -7 ft 0 kts 238°
2026-05-06 12:22 52.30477 4.76291 -7 ft 2 kts 239°
2026-05-06 12:22 52.30485 4.76311 -7 ft 2 kts 238°
2026-05-06 12:22 52.30493 4.76332 -7 ft 2 kts 238°
2026-05-06 12:23 52.30499 4.76351 -7 ft 1 kts 238°
2026-05-06 12:23 52.30504 4.76361 -7 ft 1 kts 202°
2026-05-06 12:23 52.30512 4.76362 -7 ft 0 kts 154°
2026-05-06 12:23 52.30517 4.76356 -6 ft 1 kts 145°
2026-05-06 12:24 52.30519 4.76354 -6 ft 0 kts 147°
2026-05-06 12:26 52.30514 4.76359 -7 ft 7 kts 147°
2026-05-06 12:26 52.30439 4.76433 -9 ft 15 kts 147°
2026-05-06 12:27 52.30343 4.76522 -13 ft 17 kts 170°
2026-05-06 12:27 52.30254 4.76415 -12 ft 16 kts 235°
2026-05-06 12:27 52.30189 4.76255 -13 ft 17 kts 241°
2026-05-06 12:27 52.30129 4.76081 -12 ft 17 kts 239°
2026-05-06 12:28 52.30065 4.75917 -12 ft 18 kts 238°
2026-05-06 12:28 52.29996 4.75741 -13 ft 19 kts 238°
2026-05-06 12:28 52.29926 4.75559 -13 ft 19 kts 238°
2026-05-06 12:28 52.29857 4.75379 -13 ft 19 kts 238°
2026-05-06 12:29 52.29851 4.75182 -10 ft 17 kts 301°
2026-05-06 12:29 52.29926 4.75030 -10 ft 17 kts 312°
2026-05-06 12:29 52.30007 4.74884 -10 ft 17 kts 311°
2026-05-06 12:29 52.30092 4.74728 -13 ft 20 kts 311°
2026-05-06 12:30 52.30185 4.74554 -17 ft 21 kts 311°
2026-05-06 12:30 52.30281 4.74375 -17 ft 21 kts 310°
2026-05-06 12:30 52.30370 4.74212 -24 ft 20 kts 311°
2026-05-06 12:30 52.30414 4.74020 -23 ft 18 kts 261°
2026-05-06 12:31 52.30409 4.73956 -22 ft 0 kts 264°
2026-05-06 12:31 52.30411 4.73843 -23 ft 17 kts 286°
2026-05-06 12:32 52.30503 4.73762 -21 ft 16 kts 360°
2026-05-06 12:32 52.30796 4.73786 -21 ft 82 kts
2026-05-06 12:32 52.31618 4.73857 -15 ft 152 kts
2026-05-06 12:32 52.32810 4.73840 294 ft 186 kts
2026-05-06 12:33 52.34102 4.73978 1084 ft 190 kts 19°
2026-05-06 12:33 52.35266 4.74757 2098 ft 183 kts 28°
2026-05-06 12:33 52.36428 4.75726 2755 ft 198 kts 28°
2026-05-06 12:33 52.37657 4.76900 3355 ft 216 kts 37°
2026-05-06 12:34 52.38809 4.78580 3945 ft 234 kts 53°
2026-05-06 12:34 52.39357 4.81143 4565 ft 254 kts 87°
2026-05-06 12:34 52.38928 4.83956 5442 ft 266 kts 116°
2026-05-06 12:34 52.37995 4.86549 6376 ft 270 kts 117°
2026-05-06 12:35 52.37063 4.89203 7268 ft 275 kts 117°
2026-05-06 12:35 52.36126 4.91913 8138 ft 279 kts 117°
2026-05-06 12:35 52.35176 4.94671 8983 ft 284 kts 118°
2026-05-06 12:35 52.34165 4.97444 9811 ft 289 kts 122°
2026-05-06 12:36 52.33028 5.00173 10528 ft 299 kts 124°
2026-05-06 12:36 52.31809 5.03021 10978 ft 316 kts 124°
2026-05-06 12:36 52.30521 5.06034 11385 ft 335 kts 124°
2026-05-06 12:36 52.29165 5.09230 11764 ft 353 kts 124°
2026-05-06 12:37 52.27743 5.12598 12126 ft 371 kts 124°
2026-05-06 12:37 52.26268 5.16098 12639 ft 381 kts 124°
2026-05-06 12:37 52.24785 5.19620 13638 ft 376 kts 124°
2026-05-06 12:37 52.23319 5.23103 14489 ft 377 kts 124°
2026-05-06 12:38 52.21835 5.26624 15190 ft 381 kts 124°
2026-05-06 12:38 52.20333 5.30184 15866 ft 386 kts 124°
2026-05-06 12:38 52.18812 5.33785 16536 ft 390 kts 124°
2026-05-06 12:38 52.17277 5.37415 17205 ft 393 kts 124°
2026-05-06 12:39 52.15735 5.41061 17863 ft 396 kts 125°
2026-05-06 12:39 52.14171 5.44751 18509 ft 399 kts 125°
2026-05-06 12:39 52.12597 5.48460 19132 ft 402 kts 125°
2026-05-06 12:39 52.11007 5.52199 19742 ft 406 kts 125°
2026-05-06 12:40 52.09402 5.55964 20331 ft 409 kts 125°
2026-05-06 12:40 52.07788 5.59747 20923 ft 412 kts 125°
2026-05-06 12:40 52.06162 5.63554 21508 ft 414 kts 125°
2026-05-06 12:40 52.04519 5.67397 22075 ft 417 kts 126°
2026-05-06 12:41 52.02868 5.71250 22615 ft 420 kts 126°
2026-05-06 12:41 52.01204 5.75126 23144 ft 422 kts 126°
2026-05-06 12:41 51.99356 5.78795 23636 ft 424 kts 137°
2026-05-06 12:41 51.96999 5.81622 24138 ft 425 kts 152°
2026-05-06 12:42 51.94303 5.83510 24651 ft 426 kts 161°
2026-05-06 12:42 51.91527 5.85163 25110 ft 430 kts 157°
2026-05-06 12:42 51.88843 5.87296 25562 ft 433 kts 151°
2026-05-06 12:42 51.86396 5.90102 25980 ft 436 kts 139°
2026-05-06 12:43 51.84243 5.93532 26468 ft 438 kts 133°
2026-05-06 12:43 51.82253 5.97227 26915 ft 439 kts 130°
2026-05-06 12:43 51.80421 6.01162 27325 ft 442 kts 123°
2026-05-06 12:43 51.78822 6.05367 27750 ft 443 kts 121°
2026-05-06 12:44 51.77273 6.09654 28147 ft 445 kts 120°
2026-05-06 12:44 51.75713 6.13946 28498 ft 447 kts 121°
2026-05-06 12:44 51.74126 6.18235 28832 ft 449 kts 121°
2026-05-06 12:44 51.72516 6.22528 29146 ft 451 kts 121°
2026-05-06 12:45 51.70892 6.26818 29565 ft 450 kts 121°
2026-05-06 12:45 51.69270 6.31079 30067 ft 448 kts 121°
2026-05-06 12:45 51.66036 6.39520 31025 ft 443 kts 122°
2026-05-06 12:46 51.64350 6.43625 31421 ft 441 kts 124°
2026-05-06 12:46 51.62550 6.47580 31755 ft 441 kts 127°
2026-05-06 12:46 51.60617 6.51378 32046 ft 441 kts 130°
2026-05-06 12:46 51.58592 6.55053 32327 ft 442 kts 131°
2026-05-06 12:47 51.56560 6.58728 32610 ft 442 kts 131°
2026-05-06 12:47 51.54529 6.62399 32877 ft 442 kts 131°
2026-05-06 12:47 51.52491 6.66073 33141 ft 443 kts 132°
2026-05-06 12:47 51.50453 6.69739 33341 ft 444 kts 133°
2026-05-06 12:48 51.48402 6.73424 33497 ft 446 kts 133°
2026-05-06 12:48 51.46346 6.77111 33651 ft 447 kts 133°
2026-05-06 12:48 51.44280 6.80807 33798 ft 448 kts 133°
2026-05-06 12:48 51.42207 6.84512 33946 ft 449 kts 133°
2026-05-06 12:49 51.40094 6.88157 34092 ft 450 kts 136°
2026-05-06 12:49 51.37872 6.91651 34231 ft 450 kts 137°
2026-05-06 12:49 51.35631 6.95132 34361 ft 451 kts 137°
2026-05-06 12:49 51.33389 6.98612 34476 ft 452 kts 137°
2026-05-06 12:50 51.31141 7.02098 34585 ft 454 kts 137°
2026-05-06 12:50 51.28880 7.05599 34710 ft 455 kts 138°
2026-05-06 12:50 51.26616 7.09099 34793 ft 456 kts 138°
2026-05-06 12:51 51.22074 7.16101 34789 ft 457 kts 138°
2026-05-06 12:51 51.17525 7.23102 34785 ft 457 kts 138°
2026-05-06 12:52 51.12969 7.30087 34781 ft 457 kts 138°
2026-05-06 12:52 51.08417 7.37050 34774 ft 456 kts 138°
2026-05-06 12:53 51.03867 7.43991 34775 ft 456 kts 138°
2026-05-06 12:53 50.99313 7.50913 34767 ft 456 kts 138°
2026-05-06 12:54 50.94757 7.57824 34767 ft 456 kts 139°
2026-05-06 12:54 50.90193 7.64727 34764 ft 456 kts 139°
2026-05-06 12:55 50.85627 7.71609 34762 ft 455 kts 139°
2026-05-06 12:55 50.81054 7.78465 34759 ft 455 kts 140°
2026-05-06 12:56 50.76470 7.85291 34762 ft 455 kts 140°
2026-05-06 12:56 50.71891 7.92096 34767 ft 454 kts 140°
2026-05-06 12:57 50.67317 7.98873 34770 ft 453 kts 140°
2026-05-06 12:57 50.62719 8.05593 34771 ft 453 kts 142°
2026-05-06 12:58 50.57811 8.11666 34772 ft 450 kts 148°
2026-05-06 12:58 50.52599 8.16999 34769 ft 449 kts 150°
2026-05-06 12:59 50.47368 8.22261 34761 ft 449 kts 150°
2026-05-06 12:59 50.42135 8.27514 34750 ft 448 kts 150°
2026-05-06 13:00 50.36907 8.32740 34756 ft 448 kts 150°
2026-05-06 13:00 50.31770 8.38201 34759 ft 450 kts 146°
2026-05-06 13:01 50.26981 8.44459 34753 ft 453 kts 140°
2026-05-06 13:01 50.22595 8.51492 34764 ft 456 kts 136°
2026-05-06 13:02 50.18319 8.58746 34764 ft 456 kts 136°
2026-05-06 13:02 50.14042 8.65968 34767 ft 455 kts 137°
2026-05-06 13:03 50.09766 8.73165 34757 ft 454 kts 137°
2026-05-06 13:03 50.05448 8.80264 34758 ft 452 kts 140°
2026-05-06 13:04 50.00855 8.86847 34748 ft 451 kts 142°
2026-05-06 13:04 49.96227 8.93390 34749 ft 453 kts 142°
2026-05-06 13:05 49.91589 8.99928 34743 ft 453 kts 142°
2026-05-06 13:05 49.86940 9.06462 34755 ft 453 kts 142°
2026-05-06 13:06 49.82292 9.12983 34750 ft 453 kts 143°
2026-05-06 13:06 49.77650 9.19472 34739 ft 452 kts 143°
2026-05-06 13:07 49.73051 9.25896 34745 ft 434 kts 143°
2026-05-06 13:07 49.70868 9.28951 34749 ft 418 kts 143°
2026-05-06 13:07 49.68759 9.31889 34745 ft 402 kts 143°
2026-05-06 13:07 49.66730 9.34709 34737 ft 387 kts 144°
2026-05-06 13:08 49.64765 9.37437 34749 ft 379 kts 144°
2026-05-06 13:08 49.60967 9.43019 34754 ft 382 kts 139°
2026-05-06 13:09 49.57450 9.49157 34762 ft 390 kts 137°
2026-05-06 13:09 49.53799 9.55557 34760 ft 408 kts 137°
2026-05-06 13:10 49.49987 9.62228 34756 ft 425 kts 137°
2026-05-06 13:10 49.46047 9.69113 34680 ft 434 kts 137°
2026-05-06 13:10 49.44057 9.72589 34194 ft 438 kts 138°
2026-05-06 13:11 49.42052 9.76077 33605 ft 440 kts 138°
2026-05-06 13:11 49.40043 9.79568 33075 ft 437 kts 137°
2026-05-06 13:11 49.38055 9.83022 32602 ft 432 kts 137°
2026-05-06 13:11 49.36088 9.86427 32167 ft 427 kts 137°
2026-05-06 13:12 49.34139 9.89793 31723 ft 422 kts 137°
2026-05-06 13:12 49.32210 9.93120 31237 ft 418 kts 137°
2026-05-06 13:12 49.30294 9.96419 30756 ft 414 kts 138°
2026-05-06 13:12 49.28401 9.99675 30222 ft 410 kts 137°
2026-05-06 13:13 49.26521 10.02902 29663 ft 407 kts 137°
2026-05-06 13:13 49.24653 10.06106 29095 ft 404 kts 137°
2026-05-06 13:13 49.22799 10.09278 28560 ft 401 kts 137°
2026-05-06 13:13 49.20957 10.12428 27994 ft 398 kts 137°
2026-05-06 13:14 49.19131 10.15555 27452 ft 395 kts 136°
2026-05-06 13:14 49.17322 10.18649 26921 ft 392 kts 136°
2026-05-06 13:14 49.15520 10.21729 26396 ft 389 kts 136°
2026-05-06 13:14 49.13745 10.24748 26112 ft 378 kts 137°
2026-05-06 13:15 49.11985 10.27617 25912 ft 367 kts 138°
2026-05-06 13:15 49.10257 10.30388 25707 ft 356 kts 138°
2026-05-06 13:15 49.08581 10.33070 25501 ft 346 kts 138°
2026-05-06 13:15 49.06934 10.35703 25003 ft 345 kts 137°
2026-05-06 13:16 49.05289 10.38333 24463 ft 345 kts 137°
2026-05-06 13:16 49.03643 10.40966 23933 ft 345 kts 137°
2026-05-06 13:16 49.01997 10.43603 23387 ft 345 kts 137°
2026-05-06 13:16 49.00350 10.46240 22851 ft 346 kts 137°
2026-05-06 13:17 48.98700 10.48876 22317 ft 346 kts 137°
2026-05-06 13:17 48.97047 10.51511 21789 ft 346 kts 137°
2026-05-06 13:17 48.95396 10.54140 21258 ft 346 kts 137°
2026-05-06 13:17 48.93747 10.56767 20734 ft 345 kts 137°
2026-05-06 13:18 48.92099 10.59390 20212 ft 345 kts 137°
2026-05-06 13:18 48.90451 10.62008 19694 ft 344 kts 137°
2026-05-06 13:18 48.88807 10.64618 19178 ft 344 kts 137°
2026-05-06 13:18 48.87164 10.67225 18659 ft 343 kts 138°
2026-05-06 13:19 48.85525 10.69824 18153 ft 342 kts 138°
2026-05-06 13:19 48.83889 10.72414 17645 ft 342 kts 138°
2026-05-06 13:19 48.82252 10.75001 17133 ft 341 kts 138°
2026-05-06 13:19 48.80622 10.77575 16621 ft 340 kts 138°
2026-05-06 13:20 48.78995 10.80132 16109 ft 339 kts 137°
2026-05-06 13:20 48.77365 10.82690 15572 ft 338 kts 137°
2026-05-06 13:20 48.75744 10.85234 15048 ft 337 kts 137°
2026-05-06 13:20 48.74130 10.87761 14536 ft 336 kts 137°
2026-05-06 13:21 48.72520 10.90281 14030 ft 334 kts 137°
2026-05-06 13:21 48.70914 10.92791 13529 ft 333 kts 137°
2026-05-06 13:21 48.69313 10.95291 13031 ft 332 kts 137°
2026-05-06 13:21 48.67719 10.97774 12531 ft 330 kts 136°
2026-05-06 13:22 48.66130 11.00249 12035 ft 329 kts 136°
2026-05-06 13:22 48.64548 11.02710 11539 ft 328 kts 136°
2026-05-06 13:22 48.62975 11.05153 11043 ft 323 kts 136°
2026-05-06 13:22 48.61436 11.07543 10547 ft 314 kts 136°
2026-05-06 13:23 48.59959 11.09836 10049 ft 299 kts 135°
2026-05-06 13:23 48.58507 11.11969 9554 ft 286 kts 139°
2026-05-06 13:23 48.57005 11.13847 9063 ft 281 kts 143°
2026-05-06 13:23 48.55422 11.15537 8569 ft 279 kts 146°
2026-05-06 13:24 48.53824 11.17165 8078 ft 279 kts 145°
2026-05-06 13:24 48.52434 11.19156 7569 ft 279 kts 121°
2026-05-06 13:24 48.51802 11.21882 7077 ft 280 kts 95°
2026-05-06 13:24 48.51983 11.24774 6596 ft 280 kts 77°
2026-05-06 13:25 48.52418 11.27634 6108 ft 282 kts 76°
2026-05-06 13:25 48.52854 11.30513 5622 ft 285 kts 76°
2026-05-06 13:25 48.53285 11.33413 5165 ft 285 kts 76°
2026-05-06 13:25 48.53703 11.36283 4973 ft 275 kts 76°
2026-05-06 13:26 48.54100 11.39044 4966 ft 266 kts 76°
2026-05-06 13:26 48.54477 11.41686 4957 ft 251 kts 77°
2026-05-06 13:26 48.54837 11.44208 4960 ft 246 kts 77°
2026-05-06 13:26 48.55192 11.46713 4961 ft 245 kts 77°
2026-05-06 13:27 48.55545 11.49219 4961 ft 245 kts 77°
2026-05-06 13:27 48.55897 11.51734 4963 ft 246 kts 77°
2026-05-06 13:27 48.56249 11.54241 4964 ft 245 kts 77°
2026-05-06 13:27 48.56602 11.56754 4962 ft 245 kts 77°
2026-05-06 13:28 48.56953 11.59258 4960 ft 245 kts 77°
2026-05-06 13:28 48.57303 11.61757 4957 ft 240 kts 77°
2026-05-06 13:28 48.57637 11.64137 4946 ft 225 kts 77°
2026-05-06 13:28 48.57948 11.66358 4933 ft 209 kts 78°
2026-05-06 13:29 48.58234 11.68402 5015 ft 191 kts 78°
2026-05-06 13:29 48.58495 11.70270 4957 ft 174 kts 78°
2026-05-06 13:29 48.58730 11.71961 4921 ft 156 kts 78°
2026-05-06 13:29 48.58954 11.73572 4952 ft 165 kts 78°
2026-05-06 13:30 48.59195 11.75312 4966 ft 173 kts 78°
2026-05-06 13:30 48.59442 11.77089 4956 ft 174 kts 78°
2026-05-06 13:30 48.59689 11.78872 4951 ft 174 kts 78°
2026-05-06 13:30 48.59936 11.80653 4946 ft 174 kts 78°
2026-05-06 13:31 48.60183 11.82435 4942 ft 174 kts 78°
2026-05-06 13:31 48.60430 11.84220 4942 ft 174 kts 76°
2026-05-06 13:31 48.60859 11.85918 4942 ft 174 kts 60°
2026-05-06 13:31 48.61592 11.87359 4940 ft 174 kts 44°
2026-05-06 13:32 48.62564 11.88431 4941 ft 174 kts 28°
2026-05-06 13:32 48.63701 11.89052 4941 ft 175 kts 13°
2026-05-06 13:32 48.64914 11.89168 4942 ft 177 kts 356°
2026-05-06 13:32 48.66109 11.88757 4945 ft 178 kts 340°
2026-05-06 13:33 48.67186 11.87842 4944 ft 179 kts 323°
2026-05-06 13:33 48.68050 11.86488 4943 ft 181 kts 306°
2026-05-06 13:33 48.68623 11.84798 4941 ft 182 kts 289°
2026-05-06 13:33 48.68847 11.82922 4944 ft 183 kts 272°
2026-05-06 13:34 48.68698 11.81024 4944 ft 183 kts 255°
2026-05-06 13:34 48.68193 11.79269 4945 ft 183 kts 238°
2026-05-06 13:34 48.67432 11.77738 4949 ft 183 kts 230°
2026-05-06 13:34 48.66606 11.76285 4946 ft 183 kts 229°
2026-05-06 13:35 48.65783 11.74849 4935 ft 176 kts 229°
2026-05-06 13:35 48.65027 11.73509 4938 ft 165 kts 230°
2026-05-06 13:35 48.64292 11.72191 4943 ft 164 kts 230°
2026-05-06 13:35 48.63560 11.70867 4944 ft 163 kts 230°
2026-05-06 13:36 48.62856 11.69583 4936 ft 157 kts 230°
2026-05-06 13:36 48.62162 11.68315 4942 ft 157 kts 230°
2026-05-06 13:36 48.61467 11.67043 4948 ft 158 kts 230°
2026-05-06 13:36 48.60770 11.65768 4959 ft 160 kts 230°
2026-05-06 13:37 48.60044 11.64441 4974 ft 167 kts 231°
2026-05-06 13:37 48.59304 11.63084 4963 ft 168 kts 231°
2026-05-06 13:37 48.58562 11.61726 4954 ft 168 kts 231°
2026-05-06 13:37 48.57818 11.60366 4956 ft 169 kts 231°
2026-05-06 13:38 48.57073 11.59004 4956 ft 169 kts 231°
2026-05-06 13:38 48.56328 11.57642 4955 ft 169 kts 231°
2026-05-06 13:38 48.55615 11.56340 4958 ft 168 kts 231°
2026-05-06 13:38 48.54879 11.54998 4946 ft 165 kts 231°
2026-05-06 13:39 48.54152 11.53672 4952 ft 164 kts 231°
2026-05-06 13:39 48.53427 11.52349 4955 ft 164 kts 231°
2026-05-06 13:39 48.52704 11.51029 4956 ft 164 kts 231°
2026-05-06 13:39 48.51981 11.49711 4954 ft 164 kts 231°
2026-05-06 13:40 48.51257 11.48392 4956 ft 164 kts 231°
2026-05-06 13:40 48.50519 11.47097 4954 ft 164 kts 229°
2026-05-06 13:40 48.49762 11.45827 4957 ft 163 kts 229°
2026-05-06 13:40 48.49004 11.44558 4956 ft 163 kts 229°
2026-05-06 13:41 48.48243 11.43289 4960 ft 163 kts 229°
2026-05-06 13:41 48.47485 11.42023 4961 ft 163 kts 229°
2026-05-06 13:41 48.46727 11.40758 4964 ft 163 kts 230°
2026-05-06 13:41 48.45969 11.39495 4963 ft 163 kts 230°
2026-05-06 13:42 48.45213 11.38231 4964 ft 163 kts 230°
2026-05-06 13:42 48.44456 11.36968 4965 ft 163 kts 228°
2026-05-06 13:42 48.43610 11.35850 4964 ft 163 kts 216°
2026-05-06 13:42 48.42606 11.35070 4962 ft 164 kts 201°
2026-05-06 13:43 48.41491 11.34894 4945 ft 165 kts 163°
2026-05-06 13:43 48.40562 11.35855 4969 ft 164 kts 131°
2026-05-06 13:43 48.39826 11.37156 4969 ft 164 kts 128°
2026-05-06 13:43 48.39072 11.38425 4965 ft 163 kts 131°
2026-05-06 13:44 48.38273 11.39623 4962 ft 162 kts 134°
2026-05-06 13:44 48.37444 11.40758 4960 ft 162 kts 136°
2026-05-06 13:44 48.36599 11.41861 4959 ft 161 kts 137°
2026-05-06 13:44 48.35753 11.42940 4954 ft 160 kts 138°
2026-05-06 13:45 48.34903 11.44014 4952 ft 160 kts 136°
2026-05-06 13:45 48.34077 11.46888 4944 ft 146 kts 90°
2026-05-06 13:45 48.34104 11.48385 4939 ft 143 kts 82°
2026-05-06 13:46 48.34225 11.49861 4843 ft 143 kts 79°
2026-05-06 13:46 48.34359 11.51330 4657 ft 142 kts 80°
2026-05-06 13:46 48.34486 11.52795 4472 ft 142 kts 80°
2026-05-06 13:46 48.34603 11.54258 4287 ft 142 kts 80°
2026-05-06 13:47 48.34715 11.55720 4101 ft 141 kts 80°
2026-05-06 13:47 48.34818 11.57118 3928 ft 140 kts 81°
2026-05-06 13:47 48.34922 11.58567 3750 ft 140 kts 80°
2026-05-06 13:47 48.35028 11.60015 3570 ft 140 kts 81°
2026-05-06 13:48 48.35132 11.61460 3392 ft 140 kts 81°
2026-05-06 13:48 48.35237 11.62905 3209 ft 139 kts 80°
2026-05-06 13:48 48.35343 11.64345 3024 ft 139 kts 79°
2026-05-06 13:48 48.35449 11.65780 2845 ft 139 kts 81°
2026-05-06 13:49 48.35557 11.67213 2664 ft 138 kts 81°
2026-05-06 13:49 48.35664 11.68643 2486 ft 138 kts 81°
2026-05-06 13:49 48.35771 11.70069 2309 ft 138 kts 82°
2026-05-06 13:49 48.35879 11.71493 2135 ft 138 kts 82°
2026-05-06 13:50 48.35987 11.72914 1955 ft 137 kts 83°
2026-05-06 13:50 48.36094 11.74333 1777 ft 137 kts 82°
2026-05-06 13:50 48.36201 11.75743 1601 ft 136 kts 83°
2026-05-06 13:50 48.36311 11.77122 1476 ft 129 kts 82°
2026-05-06 13:51 48.36408 11.78325 1435 ft 86 kts 89°
2026-05-06 13:51 48.36438 11.78797 1435 ft 23 kts 83°
2026-05-06 13:51 48.36453 11.79043 1436 ft 23 kts 88°
2026-05-06 13:51 48.36434 11.79286 1434 ft 23 kts 105°
2026-05-06 13:52 48.36409 11.79402 1433 ft 0 kts 109°
2026-05-06 13:52 48.36407 11.79409 1433 ft 6 kts 109°
2026-05-06 13:52 48.36337 11.79659 1433 ft 13 kts 114°
2026-05-06 13:52 48.36333 11.79673 1433 ft 0 kts 114°
2026-05-06 13:53 48.36328 11.79692 1433 ft 6 kts 114°
2026-05-06 13:54 48.36303 11.79753 1432 ft 8 kts 139°
2026-05-06 13:54 48.36253 11.79747 1433 ft 8 kts 226°
2026-05-06 13:54 48.36232 11.79667 1432 ft 9 kts 260°
2026-05-06 13:54 48.36220 11.79569 1433 ft 9 kts 261°
2026-05-06 13:55 48.36197 11.79490 1435 ft 7 kts 215°
2026-05-06 13:55 48.36146 11.79485 1436 ft 7 kts 181°
2026-05-06 13:55 48.36095 11.79484 1437 ft 7 kts 181°
2026-05-06 13:55 48.36045 11.79487 1438 ft 7 kts 176°
2026-05-06 13:56 48.35996 11.79494 1439 ft 7 kts 174°
2026-05-06 13:56 48.35949 11.79504 1440 ft 7 kts 172°
2026-05-06 13:56 48.35900 11.79515 1441 ft 7 kts 172°
2026-05-06 13:56 48.35850 11.79525 1442 ft 7 kts 172°
2026-05-06 13:57 48.35795 11.79537 1442 ft 9 kts 172°